Weather in Herentals

Belgium     51°10′39″N   4°50′08″E
temp.,
°C
wind,
m/s
gust,
m/s
humid.,
%
clouds,
%
prec.,
mm/h
press.,
hPa
HPBL,
m
30 november, tue
tue3001:00+4wsw61476100 0.0 1013751
04:00+4sw81886100 0.2 1010881
07:00+8w81593100 3.0 10081012
10:00+8w71595100 2.1 1008980
13:00+9w71494100 4.3 1008987
16:00+9w61394100 0.4 1008889
19:00+10wsw61293100 0.5 1008776
22:00+10sw61492100 0.2 1006929
1 december, wed
wed101:00+11sw91888100 0.7 10021454
04:00+9sw102086100 0.4 9981360
07:00+9sw112185100 0.5 9941320
10:00+9w8147999 0.9 9951287
13:00+9w81475100 1.3 9951340
16:00+8w7127698 0.6 9951083
19:00+7w6117786 1.1 996814
22:00+6nw2988100 2.8 999845
2 december, thu
thu201:00+5wsw367999 3.0 1001162
04:00+5nw41074100 0.4 1001891
07:00+5nw71271100 0.9 10021068
10:00+5wnw51067100 0.8 1003755
13:00+4nnw61083100 2.1 1004971
16:00+5nnw51163100 2.0 1005484
19:00+3nw3585100 3.4 1008112
22:00+2w338051 0.3 100952
3 december, fri
fri301:00+2wsw368565 0.4 101097
04:00+2wsw4991100 0.4 1010224
07:00+2sw41188100 0.7 1010338
10:00+2ssw51287100 0.0 1010485
13:00+4ssw7137667 0.0 1008840
16:00+4ssw71374100 0.0 1005933
19:00+2s71590100 0.1 1002792
22:00+2s71696100 1.2 995850
4 december, sat
sat401:00+3sse31094100 7.5 987595
04:00+1wnw61498100 1.0 992784
07:00+5wnw81596100 7.1 9951170
10:00+6w71383100 1.7 998989
13:00+5w81394100 6.4 9991065
16:00+7wnw81482100 5.1 10011096
19:00+6wnw7138099 5.7 1004901
22:00+6wnw7137275 0.4 1005831